Simultaneous Nadir Overpasses (SNOs) Predictions

Prediction of SNOs between AQUA and METOP-B Satellite Orbit:

Table of predicted SNOs for the next 14.0 days since TLE Epoch: 3/16/2017
Index Date (AQUA) Time (AQUA) Lat,Lon (AQUA) SZA (AQUA ) Date (METOP-B) Time (METOP-B) Lat,Lon (METOP-B) SZA (METOP-B ) Distance(km) Time Diff (sec)
1 03/18/2017 00:16:31 -73.74, -9.69 105.25 03/18/2017 00:15:42 -73.74, -9.62 105.25 2.45 49
2 03/18/2017 01:05:59 73.78, 157.86 74.78 03/18/2017 01:06:21 73.79, 157.84 74.79 1.40 22
3 03/20/2017 19:50:50 -73.75, 56.71 106.36 03/20/2017 19:50:04 -73.75, 56.82 106.36 3.55 46
4 03/20/2017 20:40:18 73.79,-135.74 73.67 03/20/2017 20:40:43 73.80,-135.74 73.68 0.54 25
5 03/23/2017 15:25:08 -73.72, 123.21 107.52 03/23/2017 15:24:27 -73.72, 123.14 107.51 1.99 41
6 03/23/20
